�������l�o���
Date,Time,MP-1(��Sv/h),MP-2(��Sv/h),MP-3(��Sv/h),MP-4(��Sv/h),MP-5(��Sv/h),MP-6(��Sv/h),MP-7(��Sv/h),MP-8(��Sv/h),����,����(m/s),���J
2019/10/29,00:00,0.712,1.009,0.653,1.237,0.867,0.411,0.711,0.675,��,4.1,��
2019/10/29,00:10,0.710,1.008,0.651,1.240,0.867,0.411,0.710,0.674,��쐼,4.3,��
2019/10/29,00:20,0.712,1.008,0.653,1.235,0.867,0.411,0.710,0.676,��쐼,3.6,��
2019/10/29,00:30,0.711,1.007,0.651,1.240,0.869,0.411,0.710,0.676,��,2.8,��
2019/10/29,00:40,0.711,1.009,0.653,1.239,0.869,0.411,0.712,0.675,��,2.2,��
2019/10/29,00:50,0.712,1.010,0.651,1.237,0.865,0.410,0.711,0.673,���쐼,3.1,��
2019/10/29,01:00,0.711,1.008,0.652,1.238,0.868,0.412,0.711,0.673,��쐼,3.5,��
2019/10/29,01:10,0.710,1.006,0.654,1.239,0.868,0.410,0.710,0.674,��,3.9,��
2019/10/29,01:20,0.710,1.006,0.652,1.239,0.868,0.411,0.710,0.676,��,2.9,��
2019/10/29,01:30,0.711,1.009,0.651,1.237,0.869,0.412,0.712,0.674,��,3.8,��
2019/10/29,01:40,0.710,1.007,0.653,1.240,0.866,0.411,0.709,0.673,��,4.4,��
2019/10/29,01:50,0.711,1.006,0.653,1.238,0.868,0.413,0.711,0.675,��,5.3,��
2019/10/29,02:00,0.710,1.009,0.652,1.238,0.866,0.412,0.710,0.675,��,4.9,��
2019/10/29,02:10,0.711,1.006,0.653,1.239,0.865,0.411,0.710,0.674,��,3.8,��
2019/10/29,02:20,0.709,1.007,0.653,1.237,0.868,0.412,0.712,0.675,��,3.5,��
2019/10/29,02:30,0.712,1.006,0.651,1.238,0.867,0.410,0.712,0.674,��쐼,3.3,��
2019/10/29,02:40,0.710,1.007,0.651,1.237,0.866,0.411,0.713,0.675,��,3.3,��
2019/10/29,02:50,0.712,1.006,0.651,1.237,0.867,0.411,0.711,0.674,��,3.9,��
2019/10/29,03:00,0.710,1.007,0.652,1.238,0.867,0.411,0.714,0.676,��쐼,4.5,��
2019/10/29,03:10,0.710,1.007,0.652,1.238,0.868,0.411,0.711,0.674,��쐼,3.8,��
2019/10/29,03:20,0.713,1.008,0.651,1.239,0.869,0.412,0.714,0.674,��쐼,3.8,��
2019/10/29,03:30,0.712,1.010,0.651,1.238,0.866,0.412,0.711,0.675,��쐼,3.4,��
2019/10/29,03:40,0.712,1.005,0.650,1.238,0.866,0.411,0.710,0.675,��,3.8,��
2019/10/29,03:50,0.710,1.009,0.651,1.238,0.869,0.411,0.711,0.673,��,3.8,��
2019/10/29,04:00,0.711,1.007,0.652,1.238,0.869,0.411,0.711,0.674,��쐼,3.4,��
2019/10/29,04:10,0.709,1.006,0.651,1.237,0.868,0.410,0.710,0.676,��,3.5,��
2019/10/29,04:20,0.711,1.008,0.653,1.239,0.867,0.413,0.710,0.673,��,2.8,��
2019/10/29,04:30,0.711,1.008,0.651,1.241,0.866,0.410,0.711,0.675,��,2.5,��
2019/10/29,04:40,0.711,1.007,0.652,1.239,0.866,0.410,0.712,0.674,��,2.9,��
2019/10/29,04:50,0.710,1.008,0.650,1.240,0.867,0.411,0.712,0.676,��,3.8,��
2019/10/29,05:00,0.710,1.006,0.652,1.238,0.868,0.412,0.711,0.674,��,3.6,��
2019/10/29,05:10,0.712,1.009,0.650,1.241,0.869,0.412,0.713,0.675,��,4.2,��
2019/10/29,05:20,0.712,1.009,0.652,1.239,0.866,0.412,0.711,0.675,��,4.2,��
2019/10/29,05:30,0.711,1.006,0.653,1.240,0.868,0.412,0.711,0.675,��,3.9,��
2019/10/29,05:40,0.712,1.006,0.651,1.239,0.867,0.412,0.713,0.674,��,2.8,��
2019/10/29,05:50,0.712,1.007,0.650,1.239,0.867,0.411,0.711,0.675,��,3.4,��
2019/10/29,06:00,0.711,1.007,0.651,1.238,0.868,0.413,0.711,0.674,��,3.5,��
2019/10/29,06:10,0.710,1.007,0.652,1.240,0.868,0.411,0.711,0.675,��,3.4,��
2019/10/29,06:20,0.712,1.006,0.650,1.240,0.867,0.411,0.711,0.675,��,2.6,��
2019/10/29,06:30,0.711,1.007,0.651,1.240,0.868,0.410,0.710,0.674,��,3.3,��
2019/10/29,06:40,0.711,1.006,0.651,1.240,0.867,0.412,0.713,0.674,��,3.2,��
2019/10/29,06:50,0.710,1.007,0.652,1.238,0.868,0.411,0.712,0.676,��,1.2,��
2019/10/29,07:00,0.712,1.007,0.651,1.239,0.867,0.411,0.712,0.675,��,1.6,��
2019/10/29,07:10,0.711,1.008,0.652,1.237,0.868,0.412,0.712,0.675,��쐼,1.9,��
2019/10/29,07:20,0.713,1.009,0.651,1.240,0.867,0.409,0.713,0.675,��,2.5,��
2019/10/29,07:30,0.711,1.007,0.651,1.239,0.870,0.412,0.712,0.676,��쐼,2.0,��
2019/10/29,07:40,0.711,1.006,0.651,1.239,0.867,0.412,0.712,0.677,��쐼,1.9,��
2019/10/29,07:50,0.712,1.008,0.652,1.238,0.868,0.411,0.710,0.676,��,2.3,��
2019/10/29,08:00,0.710,1.004,0.652,1.236,0.869,0.411,0.710,0.676,��,3.2,��
2019/10/29,08:10,0.711,1.008,0.652,1.240,0.867,0.411,0.711,0.676,��,1.4,�L
2019/10/29,08:20,0.709,1.007,0.652,1.240,0.871,0.412,0.711,0.675,��쓌,1.8,�L
2019/10/29,08:30,0.712,1.006,0.651,1.240,0.868,0.412,0.711,0.676,��,1.4,��
2019/10/29,08:40,0.711,1.007,0.650,1.239,0.872,0.412,0.712,0.676,��,2.3,��
2019/10/29,08:50,0.715,1.006,0.651,1.241,0.867,0.412,0.711,0.676,��,1.9,�L
2019/10/29,09:00,0.712,1.006,0.654,1.242,0.870,0.411,0.711,0.676,��,2.6,��
2019/10/29,09:10,0.711,1.006,0.651,1.242,0.868,0.411,0.712,0.677,��,2.4,�L
2019/10/29,09:20,0.713,1.003,0.651,1.242,0.870,0.412,0.710,0.677,��,2.0,�L
2019/10/29,09:30,0.715,1.002,0.651,1.241,0.870,0.414,0.710,0.677,��,2.5,�L
2019/10/29,09:40,0.713,1.003,0.655,1.244,0.870,0.412,0.709,0.677,��,2.1,�L
2019/10/29,09:50,0.715,1.001,0.653,1.241,0.868,0.412,0.709,0.676,��쐼,2.5,�L
2019/10/29,10:00,0.715,1.000,0.655,1.240,0.870,0.410,0.710,0.674,�쐼,0.8,�L
2019/10/29,10:10,0.714,1.002,0.655,1.241,0.870,0.409,0.709,0.675,��,2.2,�L
2019/10/29,10:20,0.713,1.002,0.653,1.242,0.870,0.415,0.709,0.674,��쓌,3.1,�L
2019/10/29,10:30,0.714,1.001,0.652,1.239,0.866,0.415,0.709,0.674,��,2.1,�L
2019/10/29,10:40,0.712,1.000,0.650,1.238,0.864,0.415,0.708,0.673,��,2.6,�L
2019/10/29,10:50,0.713,0.997,0.651,1.234,0.865,0.416,0.708,0.674,��,2.8,�L
2019/10/29,11:00,0.711,0.997,0.650,1.238,0.863,0.415,0.706,0.673,��쓌,1.9,�L
2019/10/29,11:10,0.712,0.997,0.649,1.235,0.863,0.416,0.706,0.672,��,0.6,�L
2019/10/29,11:20,0.711,0.994,0.648,1.234,0.863,0.415,0.706,0.671,�쐼,0.7,�L
2019/10/29,11:30,0.711,0.993,0.653,1.236,0.861,0.414,0.705,0.670,�쐼,1.0,�L
2019/10/29,11:40,0.710,0.990,0.649,1.232,0.860,0.415,0.705,0.670,���k��,0.8,�L
2019/10/29,11:50,0.710,0.990,0.650,1.232,0.857,0.416,0.705,0.670,��,1.4,�L
2019/10/29,12:00,0.708,0.988,0.650,1.230,0.857,0.416,0.705,0.669,��,0.8,�L
2019/10/29,12:10,0.705,0.982,0.648,1.226,0.856,0.415,0.705,0.667,��,0.6,�L
2019/10/29,12:20,0.704,0.985,0.648,1.220,0.855,0.414,0.703,0.668,���쐼,0.9,�L
2019/10/29,12:30,0.706,0.982,0.646,1.220,0.851,0.414,0.703,0.669,��,1.3,�L
2019/10/29,12:40,0.703,0.980,0.643,1.219,0.852,0.414,0.701,0.667,�쓌,1.2,�L
2019/10/29,12:50,0.705,0.982,0.642,1.217,0.852,0.414,0.700,0.667,-,CALM,�L
2019/10/29,13:00,0.704,0.978,0.644,1.213,0.851,0.415,0.700,0.668,�쓌,0.6,�L
2019/10/29,13:10,0.701,0.978,0.642,1.216,0.851,0.415,0.701,0.667,-,CALM,�L
2019/10/29,13:20,0.693,0.976,0.642,1.213,0.850,0.415,0.701,0.667,-,CALM,�L
2019/10/29,13:30,0.695,0.979,0.642,1.213,0.851,0.415,0.701,0.666,-,CALM,�L
2019/10/29,13:40,0.695,0.978,0.639,1.211,0.850,0.414,0.699,0.666,�k�k��,0.8,�L
2019/10/29,13:50,0.696,0.975,0.639,1.211,0.849,0.413,0.699,0.666,-,CALM,�L
2019/10/29,14:00,0.693,0.975,0.639,1.210,0.848,0.412,0.700,0.666,-,CALM,�L
2019/10/29,14:10,0.693,0.975,0.639,1.207,0.846,0.412,0.699,0.667,�k�k��,0.7,�L
2019/10/29,14:20,0.693,0.972,0.638,1.206,0.848,0.412,0.698,0.665,��,0.6,�L
2019/10/29,14:30,0.693,0.974,0.639,1.206,0.846,0.410,0.700,0.664,�쐼,0.6,�L
2019/10/29,14:40,0.691,0.976,0.637,1.206,0.847,0.411,0.698,0.664,�쐼,1.4,�L
2019/10/29,14:50,0.693,0.973,0.639,1.207,0.846,0.412,0.698,0.663,��쐼,0.9,�L
2019/10/29,15:00,0.692,0.972,0.637,1.206,0.846,0.410,0.698,0.664,��쐼,0.6,�L
2019/10/29,15:10,0.692,0.973,0.635,1.202,0.842,0.410,0.699,0.662,���쐼,0.5,�L
2019/10/29,15:20,0.692,0.971,0.636,1.203,0.842,0.410,0.697,0.664,-,CALM,�L
2019/10/29,15:30,0.692,0.970,0.635,1.203,0.842,0.409,0.698,0.663,�쐼,0.5,�L
2019/10/29,15:40,0.696,0.970,0.635,1.202,0.842,0.410,0.698,0.664,��쐼,1.7,�L
2019/10/29,15:50,0.698,0.971,0.635,1.202,0.842,0.411,0.697,0.661,��,1.7,�L
2019/10/29,16:00,0.698,0.975,0.633,1.200,0.839,0.409,0.696,0.663,��,1.7,�L
2019/10/29,16:10,0.695,0.971,0.635,1.202,0.841,0.411,0.698,0.662,��,2.4,�L
2019/10/29,16:20,0.697,0.971,0.635,1.201,0.840,0.410,0.696,0.661,��,2.7,�L
2019/10/29,16:30,0.696,0.970,0.636,1.201,0.839,0.411,0.696,0.664,��,1.9,�L
2019/10/29,16:40,0.696,0.971,0.634,1.199,0.839,0.409,0.697,0.663,��쐼,1.5,�L
2019/10/29,16:50,0.696,0.969,0.635,1.201,0.839,0.410,0.696,0.662,��,1.1,�L
2019/10/29,17:00,0.696,0.971,0.635,1.200,0.840,0.409,0.696,0.662,��,0.6,�L
2019/10/29,17:10,0.696,0.971,0.633,1.200,0.841,0.408,0.695,0.664,-,CALM,�L
2019/10/29,17:20,0.696,0.970,0.632,1.200,0.841,0.408,0.694,0.664,-,CALM,�L
2019/10/29,17:30,0.697,0.971,0.634,1.199,0.841,0.408,0.695,0.663,-,CALM,�L
2019/10/29,17:40,0.696,0.970,0.634,1.200,0.840,0.408,0.697,0.663,�k�k��,1.3,�L
2019/10/29,17:50,0.698,0.972,0.634,1.200,0.840,0.409,0.695,0.664,�k�k��,2.6,�L
2019/10/29,18:00,0.694,0.970,0.636,1.200,0.841,0.409,0.695,0.663,�k��,4.4,�L
2019/10/29,18:10,0.695,0.974,0.636,1.202,0.841,0.407,0.696,0.663,�k��,5.2,�L
2019/10/29,18:20,0.696,0.972,0.636,1.200,0.842,0.410,0.697,0.662,�k��,4.9,�L
2019/10/29,18:30,0.694,0.972,0.637,1.200,0.843,0.408,0.697,0.663,�k�k��,3.8,�L
2019/10/29,18:40,0.696,0.973,0.635,1.201,0.841,0.410,0.697,0.664,�k,3.6,�L
2019/10/29,18:50,0.694,0.970,0.634,1.199,0.842,0.408,0.695,0.663,�k,4.1,�L
2019/10/29,19:00,0.693,0.973,0.635,1.201,0.844,0.407,0.697,0.664,�k,3.4,�L
2019/10/29,19:10,0.693,0.973,0.635,1.203,0.843,0.407,0.698,0.664,�k�k��,3.1,�L
2019/10/29,19:20,0.694,0.971,0.637,1.200,0.844,0.406,0.698,0.665,�k�k��,3.2,�L
2019/10/29,19:30,0.695,0.971,0.636,1.200,0.842,0.407,0.696,0.665,�k,2.9,�L
2019/10/29,19:40,0.695,0.971,0.637,1.201,0.843,0.408,0.695,0.665,�k�k��,1.8,�L
2019/10/29,19:50,0.695,0.971,0.637,1.202,0.841,0.407,0.696,0.663,�k,2.0,�L
2019/10/29,20:00,0.692,0.970,0.634,1.200,0.841,0.407,0.696,0.665,�k,2.4,�L
2019/10/29,20:10,0.692,0.971,0.635,1.196,0.841,0.406,0.695,0.664,�k�k��,2.6,�L
2019/10/29,20:20,0.692,0.969,0.633,1.196,0.840,0.406,0.695,0.664,�k�k��,3.3,��
2019/10/29,20:30,0.691,0.970,0.634,1.198,0.841,0.408,0.696,0.665,�k��,4.4,��
2019/10/29,20:40,0.692,0.971,0.636,1.199,0.842,0.406,0.696,0.662,�k�k��,4.3,��
2019/10/29,20:50,0.693,0.971,0.634,1.198,0.842,0.407,0.696,0.665,�k�k��,4.4,��
2019/10/29,21:00,0.692,0.973,0.635,1.200,0.842,0.406,0.696,0.665,�k�k��,3.3,��
2019/10/29,21:10,0.692,0.972,0.635,1.201,0.842,0.406,0.697,0.665,�k�k��,2.9,��
2019/10/29,21:20,0.693,0.973,0.636,1.201,0.842,0.407,0.697,0.666,�k�k��,2.6,��
2019/10/29,21:30,0.693,0.972,0.636,1.201,0.840,0.406,0.697,0.664,�k,2.1,��
2019/10/29,21:40,0.690,0.971,0.636,1.203,0.843,0.407,0.698,0.666,�k,1.5,��
2019/10/29,21:50,0.692,0.973,0.638,1.203,0.842,0.407,0.698,0.665,�k�k��,1.3,��
2019/10/29,22:00,0.695,0.975,0.637,1.202,0.843,0.408,0.699,0.667,�k,0.9,��
2019/10/29,22:10,0.695,0.972,0.636,1.202,0.843,0.408,0.697,0.665,�k��,1.6,��
2019/10/29,22:20,0.694,0.973,0.638,1.201,0.843,0.407,0.700,0.665,���쐼,0.6,��
2019/10/29,22:30,0.694,0.976,0.637,1.202,0.843,0.406,0.700,0.665,-,CALM,��
2019/10/29,22:40,0.693,0.974,0.636,1.202,0.842,0.406,0.698,0.665,��,0.6,��
2019/10/29,22:50,0.693,0.975,0.638,1.205,0.842,0.407,0.698,0.665,�쐼,1.4,��
2019/10/29,23:00,0.693,0.972,0.639,1.202,0.844,0.407,0.699,0.666,�쐼,1.8,��
2019/10/29,23:10,0.694,0.972,0.637,1.203,0.845,0.405,0.700,0.666,��,0.9,��
2019/10/29,23:20,0.693,0.972,0.637,1.202,0.842,0.407,0.699,0.665,-,CALM,��
2019/10/29,23:30,0.693,0.974,0.639,1.202,0.846,0.405,0.698,0.664,���k��,0.9,��
2019/10/29,23:40,0.695,0.976,0.639,1.203,0.844,0.406,0.701,0.665,��,3.1,��
2019/10/29,23:50,0.692,0.974,0.640,1.205,0.843,0.405,0.700,0.666,���k��,2.7,��
